Tiempo cada hora Washington

Hoy, 19 Abril, Lunes

Tiempo Temperatura Precipitaciones Viento Presión Humedad
00:00 +10°C° 0 mm 1 mps 751 mmHg 83%
01:00 +9°C° 0 mm 1 mps 751 mmHg 84%
02:00 +9°C° 0 mm 1 mps 751 mmHg 85%
03:00 +9°C° 0 mm 1 mps 751 mmHg 85%
04:00 +9°C° 0 mm 1 mps 751 mmHg 86%
05:00 +9°C° 0 mm 1 mps 751 mmHg 83%
06:00 +10°C° 0 mm 1 mps 751 mmHg 81%
07:00 +11°C° 0 mm 1 mps 751 mmHg 80%
08:00 +12°C° 0.1 mm 1 mps 751 mmHg 77%
09:00 +13°C° 0.1 mm 1 mps 751 mmHg 74%
10:00 +14°C° 0.1 mm 1 mps 751 mmHg 71%
11:00 +16°C° 0.1 mm 1 mps 751 mmHg 63%
12:00 +18°C° 0.1 mm 1 mps 751 mmHg 54%
13:00 +20°C° 0.1 mm 1 mps 750 mmHg 45%
14:00 +20°C° 0 mm 1 mps 750 mmHg 43%
15:00 +20°C° 0 mm 1 mps 750 mmHg 40%
16:00 +20°C° 0 mm 1 mps 749 mmHg 38%
17:00 +18°C° 0 mm 1 mps 750 mmHg 46%
18:00 +15°C° 0 mm 1 mps 750 mmHg 55%
19:00 +13°C° 0 mm 1 mps 751 mmHg 63%
20:00 +13°C° 0 mm 1 mps 751 mmHg 66%
21:00 +12°C° 0 mm 1 mps 752 mmHg 68%
22:00 +11°C° 0 mm 1 mps 752 mmHg 71%
23:00 +10°C° 0 mm 1 mps 752 mmHg 72%

Mañana, 20 Abril, Martes

Tiempo Temperatura Precipitaciones Viento Presión Humedad
00:00 +10°C° 0 mm 1 mps 752 mmHg 74%
01:00 +10°C° 0 mm 1 mps 752 mmHg 75%
02:00 +9°C° 0 mm 1 mps 753 mmHg 75%
03:00 +8°C° 0 mm 2 mps 753 mmHg 76%
04:00 +8°C° 0 mm 2 mps 753 mmHg 77%
05:00 +10°C° 0 mm 1 mps 753 mmHg 74%
06:00 +11°C° 0 mm 1 mps 754 mmHg 71%
07:00 +12°C° 0 mm 1 mps 754 mmHg 68%
08:00 +14°C° 0 mm 2 mps 754 mmHg 62%
09:00 +16°C° 0 mm 2 mps 755 mmHg 56%
10:00 +18°C° 0 mm 2 mps 755 mmHg 50%
11:00 +19°C° 0 mm 2 mps 754 mmHg 47%
12:00 +20°C° 0 mm 2 mps 754 mmHg 45%
13:00 +21°C° 0 mm 2 mps 754 mmHg 42%
14:00 +20°C° 0 mm 2 mps 753 mmHg 47%
15:00 +20°C° 0 mm 2 mps 753 mmHg 52%
16:00 +19°C° 0 mm 3 mps 752 mmHg 57%
17:00 +18°C° 0 mm 3 mps 752 mmHg 61%
18:00 +16°C° 0 mm 2 mps 752 mmHg 65%
19:00 +15°C° 0 mm 2 mps 752 mmHg 70%
20:00 +15°C° 0 mm 2 mps 752 mmHg 72%
21:00 +14°C° 0 mm 2 mps 752 mmHg 73%
22:00 +14°C° 0 mm 1 mps 752 mmHg 75%
23:00 +13°C° 0 mm 1 mps 752 mmHg 79%

Pasado mañana, 21 Abril, Miércoles

Tiempo Temperatura Precipitaciones Viento Presión Humedad
00:00 +12°C° 0 mm 1 mps 751 mmHg 84%
01:00 +11°C° 0 mm 1 mps 751 mmHg 88%
02:00 +12°C° 0 mm 2 mps 750 mmHg 85%
03:00 +11°C° 0 mm 3 mps 750 mmHg 82%
04:00 +12°C° 0 mm 4 mps 749 mmHg 80%
05:00 +12°C° 0.2 mm 4 mps 749 mmHg 83%
06:00 +12°C° 0.2 mm 5 mps 748 mmHg 85%
07:00 +12°C° 0.2 mm 5 mps 748 mmHg 88%
08:00 +14°C° 0.1 mm 6 mps 747 mmHg 82%
09:00 +16°C° 0.1 mm 6 mps 747 mmHg 75%
10:00 +17°C° 0.1 mm 7 mps 746 mmHg 68%
11:00 +15°C° 0.4 mm 7 mps 747 mmHg 66%
12:00 +12°C° 0.4 mm 8 mps 748 mmHg 63%
13:00 +10°C° 0.4 mm 8 mps 748 mmHg 61%
14:00 +10°C° 0 mm 8 mps 749 mmHg 56%
15:00 +10°C° 0 mm 8 mps 749 mmHg 51%
16:00 +10°C° 0 mm 8 mps 750 mmHg 46%
17:00 +7°C° 0 mm 8 mps 750 mmHg 48%
18:00 +5°C° 0 mm 7 mps 751 mmHg 50%
19:00 +4°C° 0 mm 7 mps 752 mmHg 51%
20:00 +3°C° 0 mm 6 mps 753 mmHg 53%
21:00 +2°C° 0 mm 6 mps 754 mmHg 54%
22:00 +1°C° 0 mm 5 mps 754 mmHg 56%
23:00 0°C° 0 mm 5 mps 754 mmHg 59%

22 Abril, Jueves

Tiempo Temperatura Precipitaciones Viento Presión Humedad
00:00 0°C° 0 mm 4 mps 755 mmHg 62%
01:00 -1°C° 0 mm 4 mps 755 mmHg 66%
02:00 0°C° 0 mm 3 mps 755 mmHg 68%
03:00 0°C° 0 mm 3 mps 755 mmHg 70%
04:00 0°C° 0 mm 3 mps 755 mmHg 72%
05:00 0°C° 0 mm 3 mps 755 mmHg 69%
06:00 0°C° 0 mm 4 mps 756 mmHg 65%
07:00 +1°C° 0 mm 4 mps 756 mmHg 62%
08:00 +3°C° 0 mm 5 mps 756 mmHg 54%
09:00 +5°C° 0 mm 5 mps 756 mmHg 46%
10:00 +7°C° 0 mm 6 mps 756 mmHg 38%
11:00 +8°C° 0 mm 6 mps 756 mmHg 35%
12:00 +9°C° 0 mm 6 mps 756 mmHg 32%
13:00 +10°C° 0 mm 6 mps 755 mmHg 29%
14:00 +11°C° 0 mm 6 mps 755 mmHg 31%
15:00 +11°C° 0 mm 6 mps 755 mmHg 33%
16:00 +11°C° 0 mm 6 mps 755 mmHg 35%
17:00 +10°C° 0 mm 5 mps 755 mmHg 41%
18:00 +8°C° 0 mm 4 mps 756 mmHg 47%
19:00 +8°C° 0 mm 3 mps 756 mmHg 52%
20:00 +7°C° 0 mm 3 mps 757 mmHg 56%
21:00 +6°C° 0 mm 2 mps 757 mmHg 61%
22:00 +5°C° 0 mm 2 mps 758 mmHg 65%
23:00 +4°C° 0 mm 2 mps 758 mmHg 68%

23 Abril, Viernes

Tiempo Temperatura Precipitaciones Viento Presión Humedad
00:00 +4°C° 0 mm 2 mps 758 mmHg 71%
01:00 +3°C° 0 mm 2 mps 758 mmHg 74%
02:00 +3°C° 0 mm 2 mps 758 mmHg 76%
03:00 +3°C° 0 mm 2 mps 758 mmHg 77%
04:00 +2°C° 0 mm 3 mps 758 mmHg 78%
05:00 +2°C° 0 mm 3 mps 759 mmHg 74%
06:00 +3°C° 0 mm 3 mps 759 mmHg 69%
07:00 +4°C° 0 mm 3 mps 759 mmHg 65%
08:00 +6°C° 0 mm 4 mps 759 mmHg 56%
09:00 +8°C° 0 mm 4 mps 759 mmHg 48%
10:00 +10°C° 0 mm 5 mps 759 mmHg 39%
11:00 +13°C° 0 mm 4 mps 759 mmHg 37%
12:00 +14°C° 0 mm 4 mps 758 mmHg 35%
13:00 +15°C° 0 mm 4 mps 758 mmHg 33%
14:00 +17°C° 0 mm 4 mps 758 mmHg 34%
15:00 +17°C° 0 mm 3 mps 757 mmHg 34%
16:00 +17°C° 0 mm 3 mps 757 mmHg 34%
17:00 +15°C° 0 mm 2 mps 757 mmHg 41%
18:00 +14°C° 0 mm 1 mps 757 mmHg 48%
19:00 +12°C° 0 mm 1 mps 757 mmHg 55%
20:00 +11°C° 0 mm 1 mps 757 mmHg 58%
21:00 +10°C° 0 mm 1 mps 758 mmHg 61%
22:00 +9°C° 0 mm 1 mps 758 mmHg 64%
23:00 +8°C° 0 mm 1 mps 758 mmHg 65%

24 Abril, Sábado

Tiempo Temperatura Precipitaciones Viento Presión Humedad
00:00 +8°C° 0 mm 1 mps 758 mmHg 66%
01:00 +6°C° 0 mm 0 mps 758 mmHg 68%
02:00 +7°C° 0 mm 1 mps 758 mmHg 68%
03:00 +7°C° 0 mm 1 mps 758 mmHg 69%
04:00 +7°C° 0 mm 1 mps 758 mmHg 70%
05:00 +8°C° 0 mm 1 mps 758 mmHg 67%
06:00 +8°C° 0 mm 0 mps 758 mmHg 64%
07:00 +9°C° 0 mm 0 mps 759 mmHg 62%
08:00 +11°C° 0 mm 0 mps 758 mmHg 55%
09:00 +14°C° 0 mm 0 mps 758 mmHg 49%
10:00 +16°C° 0 mm 0 mps 758 mmHg 43%
11:00 +19°C° 0 mm 1 mps 757 mmHg 41%
12:00 +20°C° 0 mm 1 mps 757 mmHg 39%
13:00 +20°C° 0 mm 2 mps 756 mmHg 37%
14:00 +20°C° 0 mm 2 mps 756 mmHg 40%
15:00 +20°C° 0 mm 2 mps 755 mmHg 43%
16:00 +20°C° 0 mm 2 mps 754 mmHg 47%
17:00 +18°C° 0 mm 2 mps 754 mmHg 52%
18:00 +17°C° 0 mm 2 mps 754 mmHg 57%
19:00 +15°C° 0 mm 2 mps 754 mmHg 63%
20:00 +15°C° 0.1 mm 2 mps 754 mmHg 71%
21:00 +13°C° 0.1 mm 3 mps 754 mmHg 79%
22:00 +13°C° 0.1 mm 3 mps 754 mmHg 87%
23:00 +12°C° 0.5 mm 3 mps 753 mmHg 91%
Mostrar más